Weather History for Lowell, ID

Change the Weather History Date:

Friday, December 7, 2012

  Actual Average Record
Temperature  
Mean Temperature 34 °F -  
Max Temperature 37 °F 37 °F 46 °F (2001)
Min Temperature 33 °F 30 °F 10 °F (2005)
Degree Days  
Heating Degree Days 30    
Moisture  
Dew Point 32 °F    
Average Humidity 92    
Maximum Humidity 96    
Minimum Humidity 89    
Precipitation  
Precipitation 0.31 in - - ()
Sea Level Pressure  
Sea Level Pressure 30.05 in    
Wind  
Wind Speed 1 mph (NNW)    
Max Wind Speed 5 mph    
Max Gust Speed -    
Averages and records for this station are not official NWS values.
T = Trace of Precipitation, MM = Missing Value Source: NWS Daily Summary

Daily Weather History Graph

Daily Weather History Graph

Search for Another Location

Airport:

Trip Planner

Search our weather history database for the weather conditions in past years. The results will help you decide how hot, cold, wet, or windy it might be!

Date:

Astronomy

Dec. 07, 2012 Rise Set
Actual Time 8:11 AM MST 4:56 PM MST
Civil Twilight 7:37 AM MST 5:31 PM MST
Nautical Twilight 6:59 AM MST 6:08 PM MST
Astronomical Twilight 6:22 AM MST 6:45 PM MST
Moon 1:16 AM MST (12/7) 1:12 PM MST (12/7)
Length of Visible Light 9h 53m
Length of Day
8h 45m
Last Quarter, 38% of the Moon is Illuminated
Dec 7
Last Quarter
Dec 13
New
Dec 19
First Quarter
Dec 28
Full
Jan 4
Last Quarter

Hourly Weather History & Observations

Time (MST) Temp. Windchill Dew Point Humidity Pressure Visibility Wind Dir Wind Speed Gust Speed Precip Events Conditions
12:52 AM 33.1 °F - 30.9 °F 92% 30.14 in - Calm Calm - 0.01 in   Unknown
1:52 AM 34.0 °F - 30.9 °F 89% 30.13 in - Calm Calm - N/A   Unknown
2:52 AM 34.0 °F - 32.0 °F 92% 30.14 in - Calm Calm - N/A   Unknown
3:52 AM 34.0 °F - 32.0 °F 92% 30.15 in - Calm Calm - N/A   Unknown
4:52 AM 34.0 °F - 32.0 °F 92% 30.15 in - Calm Calm - N/A   Unknown
5:52 AM 34.0 °F - 32.0 °F 92% 30.14 in - Calm Calm - N/A   Unknown
6:52 AM 34.0 °F - 32.0 °F 92% 30.15 in - Calm Calm - N/A   Unknown
7:52 AM 34.0 °F - 32.0 °F 92% 30.15 in - Calm Calm - N/A   Unknown
8:52 AM 34.0 °F - 32.0 °F 92% 30.14 in - Calm Calm - N/A   Unknown
9:52 AM 34.0 °F - 32.0 °F 92% 30.13 in - Calm Calm - 0.02 in   Unknown
10:52 AM 34.0 °F - 32.0 °F 92% 30.13 in - Calm Calm - 0.05 in   Unknown
11:52 AM 35.1 °F 32.2 °F 33.1 °F 92% 30.10 in - NNW 3.5 mph - N/A   Unknown
12:52 PM 35.1 °F 32.2 °F 33.1 °F 92% 30.06 in - NNW 3.5 mph - 0.01 in   Unknown
1:52 PM 35.1 °F 32.2 °F 33.1 °F 92% 30.02 in - NNW 3.5 mph - 0.02 in   Unknown
2:52 PM 35.1 °F 32.2 °F 33.1 °F 92% 29.98 in - North 3.5 mph - N/A   Unknown
3:52 PM 36.0 °F 33.3 °F 33.1 °F 89% 29.97 in - NNW 3.5 mph - N/A   Unknown
4:52 PM 35.1 °F 32.2 °F 33.1 °F 92% 29.95 in - NNW 3.5 mph - N/A   Unknown
5:52 PM 35.1 °F 31.0 °F 33.1 °F 92% 29.94 in - NNW 4.6 mph - N/A   Unknown
6:52 PM 35.1 °F - 33.1 °F 92% 29.93 in - Calm Calm - 0.01 in   Unknown
7:52 PM 35.1 °F - 34.0 °F 96% 29.91 in - Calm Calm - 0.01 in   Unknown
8:52 PM 36.0 °F - 34.0 °F 93% 29.90 in - Calm Calm - 0.08 in   Unknown
9:52 PM 35.1 °F 31.0 °F 32.0 °F 89% 29.97 in - Variable 4.6 mph - 0.09 in   Unknown
10:52 PM 35.1 °F - 33.1 °F 92% 29.98 in - Calm Calm - 0.01 in   Unknown
11:52 PM 34.0 °F - 32.0 °F 92% 30.02 in - Calm Calm - N/A   Unknown